| time (UTC) | temp F | wind direction | speed MPH | gust MPH | rain 1hr in | rain 24hr in | rain mn in | humidity % | barometer mb |
| 20260503032520 | 46 | 360 | 5.0 | 9.0 | 0.00 | 0.00 | 0.00 | 39 | 980.7 |
| 20260503032023 | 46 | 344 | 5.0 | 10.0 | 0.00 | 0.00 | 0.00 | 39 | 980.7 |
| 20260503031526 | 47 | 360 | 6.0 | 10.0 | 0.00 | 0.00 | 0.00 | 39 | 980.7 |
| 20260503031019 | 47 | 360 | 5.0 | 11.0 | 0.00 | 0.00 | 0.00 | 39 | 980.6 |
| 20260503030518 | 47 | 360 | 7.0 | 12.0 | 0.00 | 0.00 | 0.00 | 39 | 980.5 |
| 20260503030019 | 47 | 308 | 8.0 | 13.0 | 0.00 | 0.00 | 0.00 | 38 | 980.5 |
| 20260503025517 | 48 | 360 | 8.0 | 13.0 | 0.00 | 0.00 | 0.00 | 38 | 980.5 |
| 20260503025017 | 48 | 304 | 7.0 | 12.0 | 0.00 | 0.00 | 0.00 | 38 | 980.4 |
| 20260503024518 | 48 | 360 | 8.0 | 15.0 | 0.00 | 0.00 | 0.00 | 37 | 980.5 |
| 20260503024018 | 48 | 360 | 10.0 | 15.0 | 0.00 | 0.00 | 0.00 | 37 | 980.4 |
| 20260503023517 | 49 | 360 | 10.0 | 16.0 | 0.00 | 0.00 | 0.00 | 38 | 980.3 |
| 20260503023017 | 49 | 340 | 11.0 | 16.0 | 0.00 | 0.00 | 0.00 | 37 | 980.2 |
| 20260503022518 | 49 | 360 | 9.0 | 17.0 | 0.00 | 0.00 | 0.00 | 38 | 980.2 |
| 20260503022020 | 49 | 360 | 10.0 | 17.0 | 0.00 | 0.00 | 0.00 | 37 | 980.2 |
| 20260503021517 | 50 | 360 | 9.0 | 16.0 | 0.00 | 0.00 | 0.00 | 35 | 980.2 |
| 20260503021018 | 50 | 308 | 10.0 | 16.0 | 0.00 | 0.00 | 0.00 | 34 | 980.1 |
| 20260503020516 | 51 | 360 | 10.0 | 15.0 | 0.00 | 0.00 | 0.00 | 33 | 980.0 |
| 20260503020017 | 51 | 332 | 10.0 | 17.0 | 0.00 | 0.00 | 0.00 | 31 | 979.9 |
| 20260503015519 | 52 | 360 | 11.0 | 17.0 | 0.00 | 0.00 | 0.00 | 29 | 979.9 |
| 20260503015016 | 52 | 360 | 11.0 | 19.0 | 0.00 | 0.00 | 0.00 | 28 | 979.9 |
| 20260503014516 | 52 | 341 | 12.0 | 19.0 | 0.00 | 0.00 | 0.00 | 29 | 979.9 |
| 20260503014015 | 52 | 328 | 11.0 | 17.0 | 0.00 | 0.00 | 0.00 | 30 | 979.8 |
| 20260503013515 | 52 | 360 | 11.0 | 18.0 | 0.00 | 0.00 | 0.00 | 31 | 979.7 |
| 20260503013015 | 52 | 360 | 10.0 | 18.0 | 0.00 | 0.00 | 0.00 | 32 | 979.6 |
| 20260503012514 | 52 | 360 | 10.0 | 18.0 | 0.00 | 0.00 | 0.00 | 32 | 979.5 |
| 20260503012014 | 53 | 360 | 11.0 | 21.0 | 0.00 | 0.00 | 0.00 | 32 | 979.6 |
| 20260503011514 | 53 | 338 | 11.0 | 17.0 | 0.00 | 0.00 | 0.00 | 33 | 979.6 |
| 20260503011014 | 53 | 331 | 9.0 | 16.0 | 0.00 | 0.00 | 0.00 | 34 | 979.8 |
| 20260503010513 | 53 | 360 | 9.0 | 17.0 | 0.00 | 0.00 | 0.00 | 34 | 979.6 |
| 20260503010013 | 54 | 304 | 9.0 | 18.0 | 0.00 | 0.00 | 0.00 | 34 | 979.5 |
| 20260503005513 | 54 | 335 | 10.0 | 20.0 | 0.00 | 0.00 | 0.00 | 35 | 979.4 |
| 20260503005013 | 54 | 341 | 11.0 | 20.0 | 0.00 | 0.00 | 0.00 | 35 | 979.6 |
| 20260503004514 | 54 | 360 | 11.0 | 20.0 | 0.00 | 0.00 | 0.00 | 36 | 979.5 |
| 20260503004017 | 54 | 344 | 14.0 | 20.0 | 0.00 | 0.00 | 0.00 | 36 | 979.5 |
| 20260503003513 | 55 | 360 | 13.0 | 19.0 | 0.00 | 0.00 | 0.00 | 37 | 979.5 |
| 20260503003013 | 55 | 300 | 12.0 | 19.0 | 0.00 | 0.00 | 0.00 | 39 | 979.4 |
| 20260503002513 | 55 | 338 | 12.0 | 18.0 | 0.00 | 0.00 | 0.00 | 39 | 979.4 |
| 20260503002012 | 55 | 355 | 11.0 | 22.0 | 0.00 | 0.00 | 0.00 | 39 | 979.4 |
| 20260503001512 | 56 | 331 | 13.0 | 22.0 | 0.00 | 0.00 | 0.00 | 39 | 979.5 |
| 20260503001012 | 57 | 15 | 14.0 | 21.0 | 0.00 | 0.00 | 0.00 | 38 | 979.5 |
| 20260503000512 | 58 | 349 | 11.0 | 19.0 | 0.00 | 0.00 | 0.00 | 40 | 979.4 |
| 20260503000021 | 58 | 360 | 11.0 | 19.0 | 0.00 | 0.00 | 0.00 | 41 | 979.4 |
| 20260502235511 | 58 | 331 | 13.0 | 22.0 | 0.00 | 0.00 | 0.00 | 41 | 979.4 |
| 20260502235011 | 58 | 346 | 12.0 | 24.0 | 0.00 | 0.00 | 0.00 | 41 | 979.4 |
| 20260502234512 | 58 | 360 | 14.0 | 24.0 | 0.00 | 0.00 | 0.00 | 40 | 979.3 |
| 20260502234011 | 59 | 303 | 14.0 | 22.0 | 0.00 | 0.00 | 0.00 | 40 | 979.3 |
| 20260502233510 | 59 | 5 | 13.0 | 22.0 | 0.00 | 0.00 | 0.00 | 40 | 979.3 |
| 20260502233011 | 59 | 349 | 16.0 | 24.0 | 0.00 | 0.00 | 0.00 | 39 | 979.2 |
| 20260502232510 | 60 | 290 | 14.0 | 23.0 | 0.00 | 0.00 | 0.00 | 37 | 979.3 |
| 20260502232010 | 60 | 355 | 12.0 | 19.0 | 0.00 | 0.00 | 0.00 | 38 | 979.1 |
| 20260502231510 | 60 | 360 | 12.0 | 19.0 | 0.00 | 0.00 | 0.00 | 37 | 979.2 |
| 20260502231010 | 60 | 344 | 12.0 | 18.0 | 0.00 | 0.00 | 0.00 | 36 | 979.1 |
| 20260502230510 | 60 | 360 | 11.0 | 18.0 | 0.00 | 0.00 | 0.00 | 35 | 979.1 |
| 20260502230011 | 60 | 5 | 12.0 | 19.0 | 0.00 | 0.00 | 0.00 | 33 | 979.1 |
| 20260502225513 | 60 | 335 | 12.0 | 19.0 | 0.00 | 0.00 | 0.00 | 33 | 979.1 |
| 20260502225013 | 60 | 360 | 11.0 | 18.0 | 0.00 | 0.00 | 0.00 | 34 | 979.1 |
| 20260502224509 | 60 | 298 | 11.0 | 17.0 | 0.00 | 0.00 | 0.00 | 33 | 979.0 |
| 20260502224012 | 60 | 340 | 12.0 | 17.0 | 0.00 | 0.00 | 0.00 | 34 | 979.1 |
| 20260502223509 | 60 | 342 | 9.0 | 18.0 | 0.00 | 0.00 | 0.00 | 35 | 979.1 |
| 20260502223024 | 60 | 348 | 12.0 | 20.0 | 0.00 | 0.00 | 0.00 | 34 | 979.1 |
| 20260502222509 | 60 | 347 | 10.0 | 16.0 | 0.00 | 0.00 | 0.00 | 34 | 978.9 |
| 20260502222009 | 60 | 347 | 11.0 | 18.0 | 0.00 | 0.00 | 0.00 | 35 | 979.1 |
| 20260502221508 | 60 | 331 | 8.0 | 18.0 | 0.00 | 0.00 | 0.00 | 35 | 978.9 |
| 20260502221008 | 61 | 336 | 11.0 | 17.0 | 0.00 | 0.00 | 0.00 | 33 | 979.0 |
| 20260502220507 | 61 | 348 | 10.0 | 15.0 | 0.00 | 0.00 | 0.00 | 35 | 978.8 |
| 20260502220007 | 61 | 360 | 10.0 | 15.0 | 0.00 | 0.00 | 0.00 | 33 | 978.9 |
| 20260502215505 | 60 | 5 | 7.0 | 16.0 | 0.00 | 0.00 | 0.00 | 36 | 978.9 |
| 20260502215008 | 60 | 343 | 10.0 | 16.0 | 0.00 | 0.00 | 0.00 | 35 | 978.8 |
| 20260502214505 | 60 | 346 | 11.0 | 16.0 | 0.00 | 0.00 | 0.00 | 36 | 979.0 |
| 20260502214008 | 59 | 360 | 11.0 | 16.0 | 0.00 | 0.00 | 0.00 | 36 | 978.9 |
| 20260502213503 | 59 | 13 | 9.0 | 15.0 | 0.00 | 0.00 | 0.00 | 37 | 978.9 |
| 20260502213003 | 59 | 298 | 9.0 | 16.0 | 0.00 | 0.00 | 0.00 | 37 | 978.9 |
| 20260502212503 | 59 | 360 | 12.0 | 16.0 | 0.00 | 0.00 | 0.00 | 36 | 978.9 |
| 20260502212002 | 59 | 346 | 10.0 | 15.0 | 0.00 | 0.00 | 0.00 | 36 | 978.9 |
| 20260502211503 | 59 | 337 | 10.0 | 17.0 | 0.00 | 0.00 | 0.00 | 38 | 978.9 |
| 20260502211000 | 59 | 350 | 10.0 | 18.0 | 0.00 | 0.00 | 0.00 | 37 | 979.0 |
| 20260502210600 | 59 | 360 | 9.0 | 18.0 | 0.00 | 0.00 | 0.00 | 38 | 978.9 |
| 20260502210125 | 59 | 360 | 11.0 | 19.0 | 0.00 | 0.00 | 0.00 | 38 | 978.9 |
| 20260502205603 | 59 | 9 | 11.0 | 19.0 | 0.00 | 0.00 | 0.00 | 38 | 978.9 |
| 20260502205058 | 59 | 349 | 11.0 | 17.0 | 0.00 | 0.00 | 0.00 | 39 | 978.8 |
| 20260502204558 | 59 | 360 | 11.0 | 17.0 | 0.00 | 0.00 | 0.00 | 38 | 978.8 |
| 20260502204057 | 59 | 342 | 11.0 | 15.0 | 0.00 | 0.00 | 0.00 | 39 | 978.7 |
| 20260502203557 | 59 | 290 | 10.0 | 17.0 | 0.00 | 0.00 | 0.00 | 39 | 978.7 |
| 20260502203055 | 59 | 298 | 11.0 | 17.0 | 0.00 | 0.00 | 0.00 | 39 | 978.7 |
| 20260502202555 | 59 | 360 | 8.0 | 15.0 | 0.00 | 0.00 | 0.00 | 41 | 978.7 |
| 20260502202102 | 59 | 301 | 10.0 | 16.0 | 0.00 | 0.00 | 0.00 | 40 | 978.7 |
| 20260502201553 | 59 | 360 | 10.0 | 16.0 | 0.00 | 0.00 | 0.00 | 39 | 978.7 |
| 20260502201053 | 58 | 355 | 8.0 | 14.0 | 0.00 | 0.00 | 0.00 | 41 | 978.8 |
| 20260502200555 | 57 | 308 | 9.0 | 15.0 | 0.00 | 0.00 | 0.00 | 41 | 978.8 |
| 20260502200112 | 57 | 360 | 9.0 | 15.0 | 0.00 | 0.00 | 0.00 | 43 | 978.8 |
| 20260502195550 | 58 | 342 | 10.0 | 15.0 | 0.00 | 0.00 | 0.00 | 43 | 978.8 |
| 20260502195051 | 58 | 302 | 9.0 | 12.0 | 0.00 | 0.00 | 0.00 | 40 | 978.7 |
| 20260502194550 | 59 | 349 | 8.0 | 12.0 | 0.00 | 0.00 | 0.00 | 41 | 978.8 |
| 20260502194050 | 59 | 360 | 6.0 | 11.0 | 0.00 | 0.00 | 0.00 | 40 | 978.7 |
| 20260502193549 | 59 | 346 | 6.0 | 11.0 | 0.00 | 0.00 | 0.00 | 39 | 978.9 |
| 20260502193051 | 59 | 348 | 4.0 | 11.0 | 0.00 | 0.00 | 0.00 | 40 | 978.8 |
| 20260502192548 | 59 | 345 | 4.0 | 10.0 | 0.00 | 0.00 | 0.00 | 39 | 978.7 |
| 20260502192048 | 59 | 45 | 4.0 | 10.0 | 0.00 | 0.00 | 0.00 | 41 | 978.6 |
| 20260502191557 | 59 | 296 | 7.0 | 11.0 | 0.00 | 0.00 | 0.00 | 39 | 978.6 |
| 20260502191053 | 59 | 346 | 6.0 | 12.0 | 0.00 | 0.00 | 0.00 | 38 | 978.7 |
| 20260502190548 | 60 | 360 | 5.0 | 10.0 | 0.00 | 0.00 | 0.00 | 38 | 978.7 |
| 20260502190050 | 60 | 5 | 4.0 | 10.0 | 0.00 | 0.00 | 0.00 | 38 | 978.7 |
| 20260502185545 | 59 | 360 | 3.0 | 11.0 | 0.00 | 0.00 | 0.00 | 39 | 978.7 |
| 20260502185044 | 58 | 9 | 5.0 | 11.0 | 0.00 | 0.00 | 0.00 | 40 | 978.7 |
| 20260502184544 | 58 | 152 | 3.0 | 8.0 | 0.00 | 0.00 | 0.00 | 40 | 978.6 |
| 20260502184045 | 57 | 146 | 2.0 | 7.0 | 0.00 | 0.00 | 0.00 | 42 | 978.4 |
| 20260502183541 | 56 | 202 | 3.0 | 7.0 | 0.00 | 0.00 | 0.00 | 41 | 978.4 |
| 20260502183039 | 56 | 134 | 4.0 | 7.0 | 0.00 | 0.00 | 0.00 | 43 | 978.3 |
| 20260502182539 | 56 | 360 | 3.0 | 7.0 | 0.00 | 0.00 | 0.00 | 42 | 978.3 |
| 20260502182037 | 56 | 360 | 3.0 | 6.0 | 0.00 | 0.00 | 0.00 | 42 | 978.4 |
| 20260502181539 | 55 | 143 | 2.0 | 4.0 | 0.00 | 0.00 | 0.00 | 40 | 978.5 |
| 20260502181037 | 55 | 360 | 0.0 | 7.0 | 0.00 | 0.00 | 0.00 | 40 | 978.6 |
| 20260502180537 | 55 | 109 | 3.0 | 7.0 | 0.00 | 0.00 | 0.00 | 41 | 978.6 |
| 20260502164031 | 55 | 142 | 3.0 | 6.0 | 0.00 | 0.00 | 0.00 | 39 | 978.5 |
| 20260502163530 | 54 | 190 | 2.0 | 5.0 | 0.00 | 0.00 | 0.00 | 41 | 978.5 |
| 20260502163029 | 54 | 128 | 0.0 | 4.0 | 0.00 | 0.00 | 0.00 | 41 | 978.7 |
| 20260502162528 | 53 | 139 | 1.0 | 7.0 | 0.00 | 0.00 | 0.00 | 41 | 978.7 |
| 20260502162028 | 53 | 125 | 4.0 | 7.0 | 0.00 | 0.00 | 0.00 | 44 | 978.5 |
| 20260502161525 | 52 | 140 | 4.0 | 8.0 | 0.00 | 0.00 | 0.00 | 45 | 978.3 |
| 20260502161024 | 52 | 82 | 5.0 | 9.0 | 0.00 | 0.00 | 0.00 | 46 | 978.4 |
| 20260502160525 | 51 | 93 | 7.0 | 9.0 | 0.00 | 0.00 | 0.00 | 47 | 978.2 |
| 20260502152012 | 49 | 360 | 3.0 | 4.0 | 0.00 | 0.00 | 0.00 | 49 | 978.8 |
| 20260502151533 | 48 | 133 | 2.0 | 4.0 | 0.00 | 0.00 | 0.00 | 49 | 978.8 |
| 20260502151011 | 48 | 128 | 2.0 | 5.0 | 0.00 | 0.00 | 0.00 | 49 | 978.7 |
| 20260502150509 | 47 | 155 | 0.0 | 7.0 | 0.00 | 0.00 | 0.00 | 48 | 978.9 |
| 20260502130543 | 39 | 132 | 3.0 | 9.0 | 0.00 | 0.00 | 0.00 | 52 | 979.3 |
| 20260502123542 | 37 | 121 | 4.0 | 8.0 | 0.00 | 0.00 | 0.00 | 53 | 979.5 |
| 20260502123043 | 36 | 114 | 4.0 | 8.0 | 0.00 | 0.00 | 0.00 | 54 | 979.5 |
| 20260502122541 | 36 | 360 | 4.0 | 8.0 | 0.00 | 0.00 | 0.00 | 54 | 979.6 |
| 20260502122041 | 35 | 127 | 4.0 | 7.0 | 0.00 | 0.00 | 0.00 | 54 | 979.6 |
| 20260502121641 | 35 | 360 | 4.0 | 8.0 | 0.00 | 0.00 | 0.00 | 54 | 979.6 |
| 20260502121039 | 35 | 114 | 4.0 | 9.0 | 0.00 | 0.00 | 0.00 | 54 | 980.0 |
| 20260502120609 | 34 | 134 | 6.0 | 9.0 | 0.00 | 0.00 | 0.00 | 54 | 980.0 |
| 20260502115538 | 34 | 108 | 5.0 | 9.0 | 0.00 | 0.00 | 0.00 | 54 | 980.0 |
| 20260502115037 | 34 | 127 | 4.0 | 9.0 | 0.00 | 0.00 | 0.00 | 55 | 980.1 |
| 20260502114538 | 33 | 113 | 5.0 | 8.0 | 0.00 | 0.00 | 0.00 | 55 | 980.2 |
| 20260502114036 | 33 | 122 | 4.0 | 7.0 | 0.00 | 0.00 | 0.00 | 55 | 980.2 |
| 20260502113536 | 32 | 128 | 4.0 | 6.0 | 0.00 | 0.00 | 0.00 | 55 | 980.3 |
| 20260502113046 | 32 | 123 | 3.0 | 6.0 | 0.00 | 0.00 | 0.00 | 56 | 980.4 |
| 20260502112534 | 31 | 128 | 4.0 | 6.0 | 0.00 | 0.00 | 0.00 | 56 | 980.5 |
| 20260502112034 | 31 | 123 | 4.0 | 6.0 | 0.00 | 0.00 | 0.00 | 56 | 980.6 |
| 20260502111535 | 31 | 138 | 3.0 | 6.0 | 0.00 | 0.00 | 0.00 | 55 | 980.7 |
| 20260502111033 | 31 | 115 | 3.0 | 6.0 | 0.00 | 0.00 | 0.00 | 55 | 980.6 |
| 20260502110531 | 32 | 124 | 4.0 | 6.0 | 0.00 | 0.00 | 0.00 | 55 | 980.8 |
| 20260502110036 | 32 | 129 | 3.0 | 8.0 | 0.00 | 0.00 | 0.00 | 55 | 980.8 |
| 20260502105533 | 31 | 132 | 4.0 | 8.0 | 0.00 | 0.00 | 0.00 | 55 | 980.9 |
| 20260502105030 | 31 | 123 | 3.0 | 6.0 | 0.00 | 0.00 | 0.00 | 55 | 980.8 |
| 20260502104530 | 31 | 128 | 4.0 | 7.0 | 0.00 | 0.00 | 0.00 | 55 | 981.0 |
| 20260502104029 | 31 | 360 | 4.0 | 7.0 | 0.00 | 0.00 | 0.00 | 55 | 981.1 |
| 20260502103528 | 31 | 127 | 4.0 | 7.0 | 0.00 | 0.00 | 0.00 | 55 | 981.1 |
| 20260502103027 | 31 | 360 | 4.0 | 7.0 | 0.00 | 0.00 | 0.00 | 57 | 981.4 |
| 20260502102526 | 31 | 109 | 3.0 | 4.0 | 0.00 | 0.00 | 0.00 | 57 | 981.3 |
| 20260502102024 | 32 | 109 | 3.0 | 4.0 | 0.00 | 0.00 | 0.00 | 57 | 981.4 |
| 20260502101525 | 32 | 134 | 2.0 | 5.0 | 0.00 | 0.00 | 0.00 | 57 | 981.5 |
| 20260502101022 | 32 | 103 | 3.0 | 6.0 | 0.00 | 0.00 | 0.00 | 57 | 981.6 |
| 20260502100520 | 32 | 125 | 3.0 | 6.0 | 0.00 | 0.00 | 0.00 | 57 | 981.8 |
| 20260502091512 | 34 | 108 | 3.0 | 6.0 | 0.00 | 0.00 | 0.00 | 55 | 982.3 |
| 20260502091011 | 34 | 360 | 4.0 | 5.0 | 0.00 | 0.00 | 0.00 | 55 | 982.4 |
| 20260502090516 | 35 | 127 | 3.0 | 6.0 | 0.00 | 0.00 | 0.00 | 55 | 982.4 |
| 20260502071054 | 37 | 123 | 4.0 | 9.0 | 0.00 | 0.00 | 0.00 | 51 | 983.8 |
| 20260502070554 | 38 | 118 | 5.0 | 9.0 | 0.00 | 0.00 | 0.00 | 51 | 983.9 |
| 20260502070109 | 37 | 107 | 4.0 | 9.0 | 0.00 | 0.00 | 0.00 | 51 | 983.9 |
| 20260502065553 | 37 | 105 | 4.0 | 8.0 | 0.00 | 0.00 | 0.00 | 51 | 984.0 |
| 20260502065051 | 38 | 111 | 5.0 | 9.0 | 0.00 | 0.00 | 0.00 | 50 | 984.2 |
| 20260502064604 | 38 | 103 | 5.0 | 9.0 | 0.00 | 0.00 | 0.00 | 51 | 984.3 |
| 20260502064050 | 37 | 105 | 5.0 | 9.0 | 0.00 | 0.00 | 0.00 | 53 | 984.3 |
| 20260502063550 | 37 | 108 | 3.0 | 6.0 | 0.00 | 0.00 | 0.00 | 53 | 984.4 |
| 20260502063053 | 37 | 117 | 3.0 | 8.0 | 0.00 | 0.00 | 0.00 | 53 | 984.6 |
| 20260502062549 | 36 | 130 | 3.0 | 5.0 | 0.00 | 0.00 | 0.00 | 54 | 984.6 |
| 20260502062048 | 36 | 115 | 3.0 | 6.0 | 0.00 | 0.00 | 0.00 | 54 | 984.7 |
| 20260502061545 | 36 | 121 | 3.0 | 6.0 | 0.00 | 0.00 | 0.00 | 53 | 984.8 |
| 20260502061045 | 36 | 130 | 2.0 | 7.0 | 0.00 | 0.00 | 0.00 | 53 | 985.0 |
| 20260502060544 | 37 | 108 | 3.0 | 7.0 | 0.00 | 0.00 | 0.00 | 52 | 985.0 |
| 20260502060044 | 36 | 133 | 3.0 | 7.0 | 0.00 | 0.00 | 0.00 | 53 | 985.1 |
| 20260502055546 | 36 | 123 | 3.0 | 6.0 | 0.00 | 0.00 | 0.00 | 54 | 985.1 |
| 20260502055045 | 36 | 128 | 3.0 | 6.0 | 0.00 | 0.00 | 0.00 | 54 | 985.2 |
| 20260502054541 | 37 | 114 | 3.0 | 6.0 | 0.00 | 0.00 | 0.00 | 53 | 985.3 |
| 20260502054042 | 37 | 128 | 2.0 | 7.0 | 0.00 | 0.00 | 0.00 | 53 | 985.4 |
| 20260502053539 | 37 | 146 | 2.0 | 7.0 | 0.00 | 0.00 | 0.00 | 53 | 985.4 |
| 20260502053039 | 37 | 115 | 4.0 | 5.0 | 0.00 | 0.00 | 0.00 | 53 | 985.4 |
| 20260502052538 | 37 | 133 | 2.0 | 7.0 | 0.00 | 0.00 | 0.00 | 53 | 985.5 |
| 20260502052038 | 37 | 128 | 3.0 | 7.0 | 0.00 | 0.00 | 0.00 | 52 | 985.5 |
| 20260502051536 | 38 | 360 | 4.0 | 7.0 | 0.00 | 0.00 | 0.00 | 51 | 985.7 |
| 20260502051035 | 38 | 114 | 3.0 | 8.0 | 0.00 | 0.00 | 0.00 | 51 | 985.7 |
| 20260502050534 | 39 | 110 | 4.0 | 7.0 | 0.00 | 0.00 | 0.00 | 50 | 985.7 |
| 20260502050039 | 39 | 134 | 4.0 | 7.0 | 0.00 | 0.00 | 0.00 | 49 | 985.8 |
| 20260502045532 | 39 | 360 | 2.0 | 6.0 | 0.00 | 0.00 | 0.00 | 50 | 985.9 |
| 20260502045031 | 39 | 116 | 3.0 | 5.0 | 0.00 | 0.00 | 0.00 | 49 | 986.0 |
| 20260502044532 | 40 | 127 | 3.0 | 6.0 | 0.00 | 0.00 | 0.00 | 48 | 986.0 |
| 20260502044031 | 40 | 143 | 3.0 | 8.0 | 0.00 | 0.00 | 0.00 | 47 | 986.1 |
| 20260502043531 | 40 | 115 | 3.0 | 8.0 | 0.00 | 0.00 | 0.00 | 47 | 986.0 |
| 20260502043130 | 40 | 145 | 3.0 | 7.0 | 0.00 | 0.00 | 0.00 | 47 | 986.2 |
| 20260502042530 | 40 | 125 | 3.0 | 7.0 | 0.00 | 0.00 | 0.00 | 47 | 986.1 |
| 20260502042034 | 40 | 134 | 2.0 | 5.0 | 0.00 | 0.00 | 0.00 | 49 | 986.3 |
| 20260502041531 | 41 | 128 | 2.0 | 7.0 | 0.00 | 0.00 | 0.00 | 47 | 986.3 |
| 20260502041030 | 41 | 126 | 3.0 | 7.0 | 0.00 | 0.00 | 0.00 | 46 | 986.3 |
| 20260502040529 | 41 | 125 | 4.0 | 7.0 | 0.00 | 0.00 | 0.00 | 45 | 986.4 |
| 20260502040030 | 41 | 134 | 3.0 | 7.0 | 0.00 | 0.00 | 0.00 | 47 | 986.4 |
| 20260502035530 | 41 | 107 | 3.0 | 7.0 | 0.00 | 0.00 | 0.00 | 47 | 986.5 |
| 20260502035029 | 41 | 115 | 3.0 | 5.0 | 0.00 | 0.00 | 0.00 | 48 | 986.4 |
| 20260502034529 | 41 | 128 | 2.0 | 5.0 | 0.00 | 0.00 | 0.00 | 49 | 986.4 |
| 20260502034028 | 41 | 126 | 3.0 | 6.0 | 0.00 | 0.00 | 0.00 | 48 | 986.5 |
| 20260502033530 | 42 | 115 | 3.0 | 7.0 | 0.00 | 0.00 | 0.00 | 47 | 986.4 |
| 20260502033031 | 43 | 116 | 3.0 | 7.0 | 0.00 | 0.00 | 0.00 | 46 | 986.4 |